[[{"header":{"parameterUnit":"m.s-1","parameterCategory":1,"la1":30.2991,"la2":30.254,"lo1":-89.0895,"lo2":-89.0444,"dy":0.0017,"dx":0.0017,"nx":28,"ny":28,"refTime":"2024-10-12T21:00:00:Z","depth":0,"parameterNumber":2,"parameterNumberName":"U-component_of_WINDS"},"data":[0,0,0,0,0,0,0,0,0,0,0,0,0,0,0,0,0,0,0,0,0,0,0,0,0,0,0,0,0,0,0,0,0,0,0,0,0,0,0,0,0,0,0,0,0,0,0,0,0,0,0,0,0,0,0,0,0,0,-1.6988,-1.6988,0,-1.703,-1.703,-1.7031,-1.6957,-1.6955,-1.6953,-1.695,-1.6994,-1.6997,-1.7001,0,0,0,0,0,0,0,0,0,0,0,0,0,-1.6846,-1.6849,-1.6988,-1.6988,-1.6989,-1.703,-1.703,-1.7031,-1.6958,-1.6955,-1.6952,-1.6949,-1.6993,-1.6997,-1.7001,0,0,0,0,0,0,0,0,0,0,0,0,0,-1.69,-1.685,-1.6988,-1.6957,-1.6955,-1.7029,-1.703,-1.7031,-1.6959,-1.6955,-1.6951,-1.6948,-1.6991,-1.6997,-1.7002,-1.7108,0,0,-1.7018,-1.702,0,0,0,0,0,0,0,0,-1.6897,-1.6905,-1.6961,-1.696,-1.6957,-1.6984,-1.6996,-1.7057,-1.6959,-1.6957,-1.695,-1.6946,-1.6994,-1.6999,-1.7015,-1.711,-1.7112,-1.7018,-1.7021,-1.7023,-1.7025,0,0,0,0,0,0,0,-1.6893,-1.6903,-1.7004,-1.6962,-1.696,-1.6942,-1.6946,-1.7007,-1.6996,-1.6957,-1.6952,-1.6958,-1.6992,-1.701,-1.7015,-1.7112,-1.7018,-1.7022,-1.7026,-1.7028,-1.7298,-1.7302,0,0,0,0,0,0,-1.6893,-1.69,-1.7003,-1.7006,-1.6917,-1.6948,-1.6951,-1.698,-1.6995,-1.6994,-1.6961,-1.6954,-1.7003,-1.7009,-1.7016,-1.7143,-1.7023,-1.7028,-1.7031,-1.7294,-1.7299,-1.7303,0,0,0,0,0,0,-1.689,-1.6903,-1.7001,-1.6951,-1.6963,-1.6954,-1.6986,-1.6982,-1.7,-1.6998,-1.6995,-1.6981,-1.7,-1.7009,-1.7086,-1.7144,-1.7031,-1.7035,-1.7289,-1.7296,-1.7301,-1.7397,0,0,0,0,0,0,-1.6886,-1.6902,-1.6942,-1.6953,-1.6966,-1.707,-1.6989,-1.6986,-1.7009,-1.7001,-1.7016,-1.7015,-1.6998,-1.7079,-1.7091,-1.7149,-1.7039,-1.7284,-1.7292,-1.7299,-1.7389,-1.7406,-1.742,0,0,0,0,0,-1.6882,-1.6968,-1.6945,-1.6958,-1.7016,-1.7074,-1.7081,-1.7059,-1.7014,-1.7055,-1.7053,-1.7015,-1.7135,-1.7087,-1.71,-1.7161,-1.728,-1.729,-1.7299,-1.7382,-1.7403,-1.742,0,0,0,0,0,0,-1.6964,-1.6968,-1.6943,-1.7035,-1.7055,-1.7061,-1.7112,-1.7081,-1.7114,-1.7105,-1.7076,-1.7081,-1.7164,-1.7169,-1.7116,-1.7265,-1.72,-1.7212,-1.7259,-1.7278,-1.7294,-1.7292,-1.7044,0,0,0,0,0,-1.6993,-1.704,-1.7041,-1.7122,-1.7133,-1.7121,-1.7145,-1.7127,-1.7146,-1.7154,-1.7158,-1.7178,-1.7221,-1.7249,-1.7288,-1.7388,-1.7392,-1.7436,-1.7452,-1.7465,-1.7477,-1.7532,-1.7553,-1.7333,-1.7333,-1.7333,0,0,-1.7054,-1.7062,-1.7093,-1.7139,-1.7152,-1.7202,-1.7128,-1.7184,-1.7221,-1.7162,-1.7236,-1.7239,-1.726,-1.735,-1.7389,-1.7357,-1.7538,-1.7477,-1.7487,-1.7492,-1.7544,-1.7565,-1.7583,-1.734,-1.7338,-1.7337,0,0,-1.719,-1.72,-1.7269,-1.7284,-1.7304,-1.7295,-1.7312,-1.7323,-1.7324,-1.7397,-1.7354,-1.7397,-1.747,-1.7488,-1.7506,-1.7648,-1.7615,-1.7661,-1.7745,-1.7799,-1.7817,-1.7832,-1.7885,-1.7904,-1.7673,-1.7673,-1.7673,0,-1.7263,-1.7336,-1.7309,-1.7368,-1.739,-1.7339,-1.741,-1.7424,-1.7457,-1.7474,-1.7436,-1.7528,-1.7538,-1.7632,-1.7667,-1.7682,-1.7702,-1.7661,-1.7816,-1.7831,-1.7845,-1.7896,-1.7915,-1.7679,-1.7678,-1.7677,-1.7677,0,-1.7426,-1.7477,-1.7531,-1.7564,-1.7591,-1.7656,-1.7639,-1.767,-1.7649,-1.7644,-1.772,-1.773,-1.777,-1.779,-1.777,-1.7882,-1.7862,-1.7821,-1.7756,-1.7872,-1.7919,-1.7938,-1.7687,-1.7685,-1.7683,-1.7682,0,0,-1.7618,-1.7634,-1.7655,-1.7669,-1.7688,-1.7727,-1.7789,-1.7829,-1.7857,-1.788,-1.7933,-1.7996,-1.7959,-1.7979,-1.796,-1.8007,-1.8122,-1.796,-1.7961,-1.7993,-1.8249,-1.8282,-1.8305,-1.8099,-1.8102,-1.8105,-1.8248,0,-1.7755,-1.7863,-1.784,-1.7946,-1.7994,-1.7946,-1.8,-1.8017,-1.8015,-1.8055,-1.8051,-1.8097,-1.8043,-1.8056,-1.81,-1.8099,-1.8174,-1.8088,-1.815,-1.8152,-1.8149,-1.8329,-1.8364,-1.8498,-1.8266,-1.8269,-1.8271,0,-1.793,-1.7961,-1.8072,-1.8084,-1.8103,-1.8152,-1.8187,-1.8226,-1.8245,-1.8239,-1.8263,-1.8234,-1.8297,-1.8229,-1.8315,-1.8257,-1.8281,-1.8284,-1.8289,-1.8296,-1.8221,-1.8344,-1.854,-1.8562,-1.8299,-1.8297,-1.8295,0,-1.8063,-1.8131,-1.8207,-1.8221,-1.8235,-1.8272,-1.8279,-1.8294,-1.832,-1.835,-1.8367,-1.8404,-1.8425,-1.8454,-1.8437,-1.8388,-1.8527,-1.8457,-1.8526,-1.8527,-1.856,-1.8559,-1.8766,-1.8571,-1.857,-1.857,-1.8569,0,-1.822,-1.8291,-1.8267,-1.8314,-1.8392,-1.8364,-1.8442,-1.8444,-1.8458,-1.8505,-1.8464,-1.8509,-1.8482,-1.8525,-1.8511,-1.8586,-1.8595,-1.8594,-1.859,-1.8599,-1.86,-1.8617,-1.8608,-1.8575,-1.8574,-1.8573,-1.8572,0,-1.8383,-1.8369,-1.8449,-1.8456,-1.8459,-1.8517,-1.8523,-1.8567,-1.856,-1.8621,-1.8633,-1.8623,-1.8672,-1.8656,-1.8708,-1.8699,-1.8796,-1.8778,-1.879,-1.8787,-1.8858,-1.8852,-1.9085,-1.9115,-1.8897,-1.8899,-1.8901,0,-1.8486,-1.8539,-1.8552,-1.8581,-1.8592,-1.8638,-1.8664,-1.8638,-1.8667,-1.8693,-1.8735,-1.8779,-1.8814,-1.8894,-1.8892,-1.8932,-1.8917,-1.8995,-1.8923,-1.8931,-1.8921,-1.892,-1.8926,-1.9011,-1.9014,-1.9016,-1.9017,0,-1.8672,-1.8662,-1.8701,-1.8738,-1.877,-1.8798,-1.8822,-1.8848,-1.8824,-1.8858,-1.8908,-1.8935,-1.8988,-1.9034,-1.907,-1.9078,-1.9045,-1.904,-1.9058,-1.907,-1.9076,-1.9077,-1.8833,-1.9035,-1.9034,-1.9032,-1.9031,-1.903,-1.8809,-1.8855,-1.8872,-1.8917,-1.8932,-1.8956,-1.8998,-1.8997,-1.9037,-1.9079,-1.9061,-1.9118,-1.9136,-1.9181,-1.9194,-1.9239,-1.9209,-1.9235,-1.9242,-1.925,-1.926,-1.9066,-1.9245,-1.9244,-1.9244,-1.9243,-1.9243,0,-1.8996,-1.9004,-1.9045,-1.908,-1.9116,-1.908,-1.9105,-1.9137,-1.9188,-1.9207,-1.9242,-1.9299,-1.9343,-1.9344,-1.9386,-1.9421,-1.9407,-1.9433,-1.9432,-1.9435,-1.9283,-1.9265,-1.9444,-1.9444,-1.9444,-1.9444,-1.9444,-1.9444,-1.9097,-1.9173,-1.9166,-1.9249,-1.9256,-1.9313,-1.933,-1.9352,-1.9367,-1.9433,-1.9469,-1.9469,-1.9481,-1.9523,-1.9562,-1.9561,-1.958,-1.9612,-1.9606,-1.9465,-1.9445,-1.9427,-1.9409,-1.9616,-1.9616,-1.9754,-1.9756,-1.9757]},{"header":{"parameterUnit":"m.s-1","parameterCategory":1,"la1":30.2991,"la2":30.254,"lo1":-89.0895,"lo2":-89.0444,"dy":0.0017,"dx":0.0017,"nx":28,"ny":28,"refTime":"2024-10-12T21:00:00:Z","depth":0,"parameterNumber":3,"parameterNumberName":"V-component_of_WINDS"},"data":[0,0,0,0,0,0,0,0,0,0,0,0,0,0,0,0,0,0,0,0,0,0,0,0,0,0,0,0,0,0,0,0,0,0,0,0,0,0,0,0,0,0,0,0,0,0,0,0,0,0,0,0,0,0,0,0,0,0,-2.1548,-2.1549,0,-2.1616,-2.1617,-2.1617,-2.1594,-2.1593,-2.1591,-2.159,-2.1658,-2.1661,-2.1664,0,0,0,0,0,0,0,0,0,0,0,0,0,-2.1396,-2.1399,-2.1548,-2.1549,-2.155,-2.1616,-2.1617,-2.1618,-2.1595,-2.1593,-2.1591,-2.1589,-2.1657,-2.1661,-2.1664,0,0,0,0,0,0,0,0,0,0,0,0,0,-2.1462,-2.14,-2.1548,-2.1546,-2.1547,-2.1616,-2.1617,-2.1618,-2.1595,-2.1593,-2.159,-2.1588,-2.1656,-2.166,-2.1665,-2.1739,0,0,-2.168,-2.1682,0,0,0,0,0,0,0,0,-2.1459,-2.1468,-2.1545,-2.1546,-2.1547,-2.1594,-2.1588,-2.1658,-2.1595,-2.1577,-2.159,-2.1587,-2.1638,-2.1644,-2.1662,-2.1742,-2.1745,-2.168,-2.1683,-2.1685,-2.1686,0,0,0,0,0,0,0,-2.1454,-2.1465,-2.1575,-2.1547,-2.1548,-2.1541,-2.1548,-2.1601,-2.1619,-2.1578,-2.1576,-2.1585,-2.1638,-2.1657,-2.1663,-2.1746,-2.168,-2.1684,-2.1687,-2.1689,-2.189,-2.1893,0,0,0,0,0,0,-2.1449,-2.1461,-2.1572,-2.1577,-2.1497,-2.1546,-2.1554,-2.1581,-2.1618,-2.1622,-2.1587,-2.1584,-2.165,-2.1658,-2.1666,-2.1756,-2.1685,-2.1689,-2.1692,-2.1888,-2.1891,-2.1894,0,0,0,0,0,0,-2.1446,-2.1459,-2.157,-2.1519,-2.1532,-2.1551,-2.1582,-2.1584,-2.1603,-2.1625,-2.1628,-2.1603,-2.1649,-2.1659,-2.1721,-2.1757,-2.1692,-2.1696,-2.1885,-2.1889,-2.1892,-2.1935,0,0,0,0,0,0,-2.1442,-2.1458,-2.1488,-2.152,-2.1535,-2.1625,-2.1584,-2.1587,-2.1612,-2.1608,-2.1641,-2.1645,-2.1648,-2.1714,-2.1726,-2.1763,-2.17,-2.1882,-2.1887,-2.1891,-2.1931,-2.194,-2.1948,0,0,0,0,0,-2.1437,-2.1497,-2.1489,-2.1503,-2.1572,-2.1627,-2.1636,-2.1639,-2.1615,-2.1644,-2.1658,-2.1644,-2.1751,-2.1721,-2.1734,-2.1773,-2.188,-2.1885,-2.1891,-2.1927,-2.1938,-2.1948,0,0,0,0,0,0,-2.1468,-2.1501,-2.1493,-2.1565,-2.1594,-2.1623,-2.166,-2.1651,-2.1686,-2.1682,-2.1683,-2.1691,-2.1755,-2.177,-2.1735,-2.1846,-2.1812,-2.182,-2.1835,-2.1846,-2.1854,-2.185,-2.1704,0,0,0,0,0,-2.1483,-2.1526,-2.1552,-2.1613,-2.1628,-2.1641,-2.1666,-2.1666,-2.1695,-2.1707,-2.1725,-2.1753,-2.1794,-2.182,-2.1858,-2.1932,-2.1939,-2.1965,-2.1974,-2.1981,-2.1989,-2.2029,-2.2041,-2.1912,-2.1912,-2.1912,0,0,-2.1515,-2.1539,-2.1566,-2.162,-2.1642,-2.1686,-2.1652,-2.1699,-2.1732,-2.1713,-2.1774,-2.1788,-2.182,-2.1888,-2.1919,-2.1903,-2.2025,-2.1988,-2.1993,-2.1997,-2.2036,-2.2048,-2.2059,-2.1916,-2.1915,-2.1914,0,0,-2.1597,-2.1619,-2.1672,-2.1695,-2.1729,-2.1737,-2.175,-2.1781,-2.179,-2.185,-2.1838,-2.1875,-2.1945,-2.1968,-2.1989,-2.2078,-2.2066,-2.209,-2.2135,-2.2175,-2.2185,-2.2194,-2.2226,-2.2238,-2.2097,-2.2097,-2.2097,0,-2.1633,-2.1699,-2.1701,-2.175,-2.1774,-2.176,-2.1814,-2.1835,-2.188,-2.1896,-2.1877,-2.1963,-2.1984,-2.2057,-2.2079,-2.2096,-2.2111,-2.2087,-2.2183,-2.2192,-2.2201,-2.2232,-2.2244,-2.21,-2.21,-2.2099,-2.2099,0,-2.1741,-2.1787,-2.1826,-2.187,-2.1899,-2.195,-2.1959,-2.1987,-2.1984,-2.1995,-2.2056,-2.2079,-2.2122,-2.2139,-2.2137,-2.2213,-2.2201,-2.2183,-2.2148,-2.2216,-2.2245,-2.2257,-2.2104,-2.2103,-2.2102,-2.2101,0,0,-2.1846,-2.189,-2.1904,-2.1924,-2.196,-2.1995,-2.2045,-2.2087,-2.2112,-2.2142,-2.2185,-2.2243,-2.2226,-2.2249,-2.2249,-2.2283,-2.2353,-2.226,-2.2261,-2.2277,-2.2439,-2.2454,-2.2467,-2.2345,-2.2347,-2.2349,-2.2436,0,-2.1931,-2.2021,-2.2023,-2.2104,-2.2147,-2.2133,-2.2176,-2.2203,-2.2213,-2.225,-2.2261,-2.2303,-2.2277,-2.2291,-2.2324,-2.2337,-2.2385,-2.2331,-2.2384,-2.2386,-2.2378,-2.2482,-2.2499,-2.258,-2.2448,-2.2449,-2.2451,0,-2.2043,-2.2078,-2.2164,-2.2193,-2.2211,-2.2251,-2.2289,-2.2325,-2.2354,-2.2359,-2.2385,-2.2379,-2.243,-2.2392,-2.2462,-2.2425,-2.2446,-2.2456,-2.2459,-2.2465,-2.2424,-2.2493,-2.2606,-2.2619,-2.2469,-2.2467,-2.2466,0,-2.2112,-2.218,-2.224,-2.2258,-2.2293,-2.2321,-2.2337,-2.2364,-2.2389,-2.2423,-2.2439,-2.2477,-2.2499,-2.2528,-2.2533,-2.2505,-2.2603,-2.2566,-2.2609,-2.2609,-2.2631,-2.263,-2.2751,-2.2643,-2.2643,-2.2642,-2.2642,0,-2.2208,-2.2261,-2.2272,-2.2309,-2.2368,-2.237,-2.2428,-2.2442,-2.2466,-2.2505,-2.2494,-2.2531,-2.2534,-2.2571,-2.2575,-2.2632,-2.2641,-2.2647,-2.2647,-2.2649,-2.2648,-2.2664,-2.2659,-2.2646,-2.2645,-2.2644,-2.2644,0,-2.2296,-2.2305,-2.237,-2.2398,-2.2407,-2.2449,-2.2473,-2.2508,-2.2517,-2.2567,-2.2578,-2.2592,-2.2636,-2.2643,-2.2694,-2.2696,-2.2765,-2.2759,-2.2756,-2.2755,-2.2798,-2.2795,-2.2935,-2.2954,-2.2832,-2.2833,-2.2834,0,-2.2357,-2.2398,-2.2431,-2.2457,-2.2474,-2.2516,-2.2541,-2.2544,-2.2571,-2.2607,-2.2638,-2.268,-2.2715,-2.2785,-2.2799,-2.2838,-2.2833,-2.288,-2.2839,-2.2839,-2.2835,-2.2834,-2.2838,-2.2888,-2.2889,-2.289,-2.2891,0,-2.2465,-2.2468,-2.2506,-2.2545,-2.2577,-2.2608,-2.2637,-2.2658,-2.2664,-2.2695,-2.274,-2.2767,-2.2819,-2.2861,-2.29,-2.2915,-2.2905,-2.2904,-2.2916,-2.2919,-2.2916,-2.2919,-2.2778,-2.2901,-2.29,-2.2899,-2.2899,-2.2898,-2.2543,-2.2578,-2.2607,-2.265,-2.2672,-2.27,-2.2734,-2.2747,-2.2785,-2.2828,-2.2827,-2.2876,-2.2903,-2.2954,-2.2972,-2.301,-2.2995,-2.3012,-2.3017,-2.3022,-2.3026,-2.2908,-2.3016,-2.3016,-2.3016,-2.3016,-2.3016,0,-2.2651,-2.2669,-2.2708,-2.275,-2.2783,-2.277,-2.2801,-2.283,-2.2874,-2.29,-2.2934,-2.2985,-2.3026,-2.3043,-2.3083,-2.311,-2.3107,-2.3121,-2.312,-2.3124,-2.3037,-2.3023,-2.3123,-2.3123,-2.3123,-2.3123,-2.3123,-2.3123,-2.2712,-2.2772,-2.2778,-2.2848,-2.2865,-2.2914,-2.2933,-2.2958,-2.2979,-2.3038,-2.3072,-2.3083,-2.3105,-2.3146,-2.3183,-2.3187,-2.3203,-2.322,-2.3221,-2.314,-2.313,-2.3119,-2.3106,-2.3223,-2.3223,-2.3305,-2.3306,-2.3306]}]]